Regional Weather Roundup
Issued by NWS

Home | Current Version | Previous Version | Text Only | Print | Product List | Glossary Off
Versions: 1 2 3 4 5 6 7 8 9 10 11 12 13 14 15 16 17 18 19 20 21 22 23 24 25 26 27 28 29 30 31 32 33 34 35 36 37 38 39 40 41 42 43 44 45 46 47 48 49 50

311
ASUS43 KOAX 270702
RWRNE

WEATHER ROUNDUP FOR NEBRASKA
NATIONAL WEATHER SERVICE OMAHA NE
200 AM CDT THU APR 27 2017

NOTES: SATELLITE DATA IS BEING USED TO AUGMENT CLOUD COVER ABOVE
       12000 FEET.
       "FAIR" INDICATES FEW OR NO CLOUDS BELOW 12,000 FEET WITH NO
       SIGNIFICANT WEATHER AND/OR OBSTRUCTIONS TO VISIBILITY.

  * THESE STATIONS DO NOT REPORT WEATHER SUCH AS RAIN...SNOW OR FOG.

NEZ001>004-019>022-054>056-270800-
NEBRASKA PANHANDLE

CITY           SKY/WX    TMP DP  RH WIND       PRES   REMARKS
SCOTTSBLUFF    CLOUDY    41  37  86 E7        29.66S
ALLIANCE       CLOUDY    31  27  85 E3        29.66F
CHADRON        CLEAR     30  27  88 E3        29.67F
KIMBALL        CLEAR     37  36  96 S6        29.67F WCI  33
SIDNEY         CLOUDY    40  37  89 S12       29.67F WCI  33
$$

NEZ057>060-069>072-079>082-270800-
SOUTHWEST NEBRASKA

CITY           SKY/WX    TMP DP  RH WIND       PRES   REMARKS
NORTH PLATTE   CLOUDY    35  32  88 CALM      29.72S
IMPERIAL       CLOUDY    40  34  79 SE3       29.71F
LEXINGTON      PTCLDY    32  29  88 SW5       29.74R WCI  27
MCCOOK         CLOUDY    33  27  78 E5        29.73F WCI  29
OGALLALA       CLOUDY    41  33  72 SE3       29.71F
$$

NEZ005>010-023>029-035>040-094-270800-
NORTH CENTRAL NEBRASKA

CITY           SKY/WX    TMP DP  RH WIND       PRES   REMARKS
VALENTINE      CLEAR     27  22  81 W6        29.71F WCI  20
AINSWORTH      CLEAR     28  27  95 N6        29.71S WCI  22
BROKEN BOW     CLEAR     28  25  88 NE3       29.71F
O`NEILL        CLEAR     28  25  91 CALM      29.71F
ORD            CLEAR     31  27  85 W9        29.71S WCI  23
THEDFORD       CLEAR     28  26  93 CALM      29.72S
$$

NEZ041-046>049-061>064-073>077-083>087-270800-
SOUTH CENTRAL NEBRASKA

CITY           SKY/WX    TMP DP  RH WIND       PRES   REMARKS
GRAND ISLAND   CLEAR     30  28  92 W9        29.71F WCI  22
AURORA         CLEAR     30  27  88 W9        29.70F WCI  21
HASTINGS       CLEAR     28  24  85 W8        29.72F WCI  20
HEBRON         CLEAR     31  28  88 W5        29.73S WCI  26
HOLDREGE       CLEAR     32  27  83 SW5       29.74S WCI  27
KEARNEY *      CLEAR     30  25  80 NW6       29.73S WCI  24
YORK           CLEAR     30  27  86 W7        29.71S WCI  23
$$

NEZ011>018-030>034-042>045-270800-
NORTHEAST NEBRASKA

CITY           SKY/WX    TMP DP  RH WIND       PRES   REMARKS
NORFOLK        CLOUDY    36  29  75 NW7       29.68S WCI  30
ALBION         CLEAR     28  25  87 CALM      29.70F
BLAIR          CLOUDY    38  32  78 NW6       29.66F WCI  34
FREMONT        CLOUDY    38  32  79 NW7       29.69F WCI  33
TEKAMAH        CLOUDY    38  29  70 NW8       29.67F WCI  32
WAYNE          CLOUDY    34  31  88 N8        29.68S WCI  27
$$

NEZ050>053-065>068-078-088>093-270800-
SOUTHEAST NEBRASKA

CITY           SKY/WX    TMP DP  RH WIND       PRES   REMARKS
LINCOLN        CLOUDY    41  31  67 NW6       29.71F
OMAHA EPPLEY   CLOUDY    40  31  70 NW12      29.66F WCI  33
BEATRICE       CLOUDY    39  32  76 W7        29.70F WCI  34
FALLS CITY     CLOUDY    42  33  70 NW10      29.67F
NEBRASKA CITY  CLOUDY    40  31  71 NW5       29.67F
PLATTSMOUTH    CLOUDY    39  28  64 NW13      29.66F WCI  32
$$

NEZ044-045-051>053-067-270800-
OMAHA AREA

CITY           SKY/WX    TMP DP  RH WIND       PRES   REMARKS
OMAHA EPPLEY   CLOUDY    40  31  70 NW12      29.66F WCI  33
BLAIR          CLOUDY    38  32  78 NW6       29.66F WCI  34
FREMONT        CLOUDY    38  32  79 NW7       29.69F WCI  33
MILLARD        CLOUDY    41  32  70 NW10      29.67F
OFFUTT AFB     CLOUDY    40  31  70 NW12      29.66F WCI  32
PLATTSMOUTH    CLOUDY    39  28  64 NW13      29.66F WCI  32
WAHOO          CLOUDY    39  31  72 NW9       29.68F WCI  33
$$




USA.gov is the U.S. government's official web portal to all federal, state and local government web resources and services.